Total_Precipitation_Accumulation
1.34 1.39 1.39 1.25 1.16 1.12 1.15 1.33 1.59 1.37 0.84 0.64 0.66 0.73 0.80 0.89 1.10 1.00 0.94 1.01 1.04 1.09 1.20 1.24 1.30 1.41 1.69 2.26 3.21 4.58 5.24 4.55 3.62 3.30 3.31 3.56 3.90 4.35
1.19 1.30 1.35 1.29 1.21 1.16 1.19 1.20 1.31 1.49 1.20 0.70 0.64 0.69 0.82 0.87 0.96 0.90 0.92 1.08 1.06 1.06 1.11 1.15 1.22 1.28 1.41 1.67 2.17 3.03 4.25 4.93 4.55 3.89 3.55 3.67 3.88 4.14
1.14 1.17 1.20 1.21 1.23 1.16 1.16 1.18 1.16 1.21 1.20 0.74 0.59 0.63 0.81 0.91 0.89 0.84 0.88 0.93 0.95 1.06 1.07 1.08 1.14 1.23 1.39 1.54 1.81 2.26 2.96 3.94 4.62 4.50 4.10 3.88 3.81 3.84
1.09 1.08 1.07 1.10 1.17 1.12 1.09 1.07 1.03 0.98 1.02 0.85 0.61 0.60 0.69 0.78 0.91 0.98 0.95 0.92 0.88 0.98 1.02 1.10 1.20 1.24 1.32 1.47 1.68 1.98 2.36 2.92 3.63 4.17 4.24 4.02 3.79 3.76
1.07 1.07 1.03 1.08 1.14 1.09 1.09 1.03 0.93 0.87 0.88 0.90 0.72 0.63 0.66 0.72 0.90 1.06 1.06 1.05 0.99 1.00 1.03 1.10 1.18 1.26 1.31 1.39 1.57 1.79 1.99 2.22 2.64 3.38 3.94 3.90 3.76 3.65
0.99 0.97 1.00 1.11 1.14 1.15 1.19 1.07 0.99 1.00 1.01 1.05 0.92 0.77 0.78 0.80 0.99 1.22 1.30 1.26 1.21 1.09 1.11 1.14 1.24 1.34 1.34 1.31 1.35 1.43 1.57 1.89 2.26 2.69 3.31 3.70 3.59 3.53
0.95 0.94 0.99 1.13 1.19 1.35 1.47 1.34 1.30 1.38 1.34 1.34 1.24 1.12 1.06 1.08 1.17 1.22 1.37 1.40 1.40 1.26 1.16 1.09 1.13 1.14 1.19 1.27 1.29 1.32 1.39 1.56 1.87 2.25 2.68 3.15 3.45 3.51
0.99 0.94 0.94 1.05 1.08 1.18 1.36 1.45 1.51 1.62 1.69 1.68 1.60 1.46 1.22 1.13 1.18 1.32 1.41 1.58 1.64 1.34 1.26 1.21 1.17 1.25 1.19 1.18 1.34 1.33 1.35 1.46 1.65 1.95 2.29 2.61 3.00 3.40
0.97 0.96 0.95 0.99 1.05 1.03 1.13 1.19 1.22 1.37 1.59 1.71 1.78 1.42 1.22 1.16 1.36 1.58 1.55 1.62 1.57 1.46 1.57 1.52 1.26 1.29 1.22 1.31 1.48 1.38 1.34 1.37 1.48 1.68 1.95 2.22 2.51 2.86
0.94 0.93 0.91 0.92 1.02 1.22 1.19 1.14 1.05 1.06 1.26 1.46 1.71 1.54 1.37 1.42 1.74 2.06 2.15 2.02 1.63 1.42 1.58 1.77 1.37 1.27 1.30 1.39 1.53 1.43 1.31 1.28 1.34 1.50 1.71 1.92 2.14 2.42
0.93 0.91 0.91 0.89 1.10 1.38 1.32 1.17 0.99 0.90 1.02 1.33 1.63 1.76 1.80 1.93 2.16 2.49 2.66 2.49 2.03 1.50 1.48 1.73 1.56 1.39 1.51 1.67 1.72 1.59 1.34 1.28 1.31 1.38 1.48 1.60 1.82 2.12
0.98 0.93 1.03 1.11 1.26 1.39 1.27 1.24 1.31 1.09 0.97 1.01 1.09 1.21 1.31 1.47 1.84 2.14 2.44 2.52 2.17 1.95 1.61 1.69 1.80 1.80 2.04 1.90 1.77 1.55 1.34 1.30 1.31 1.33 1.34 1.40 1.57 1.63
1.03 0.98 0.94 1.18 1.26 1.32 1.35 1.31 1.52 1.42 1.18 1.19 1.14 1.09 1.08 1.20 1.41 1.71 2.10 2.42 2.43 2.13 1.74 2.00 2.27 2.08 2.15 1.97 1.84 1.75 1.42 1.22 1.20 1.28 1.33 1.38 1.47 1.47
0.98 0.87 0.90 1.12 1.20 1.29 1.29 1.36 1.47 1.42 1.24 1.18 1.09 1.03 1.06 1.12 1.22 1.39 1.72 1.98 2.09 1.95 1.66 1.99 2.55 2.32 2.19 1.89 1.78 1.86 1.64 1.37 1.22 1.19 1.22 1.45 1.46 1.42
0.97 1.04 1.10 1.19 1.20 1.12 1.17 1.27 1.26 1.19 1.28 1.26 1.10 1.00 1.04 1.17 1.24 1.29 1.43 1.70 1.86 1.82 1.75 1.81 2.20 2.30 2.30 2.08 1.72 1.72 1.78 1.67 1.40 1.31 1.26 1.27 1.21 1.16
1.11 1.15 1.21 1.19 1.09 0.99 1.03 1.05 1.01 1.09 1.25 1.26 1.12 0.99 0.98 1.09 1.23 1.33 1.43 1.57 1.79 1.81 1.78 1.83 2.08 2.44 2.41 1.95 1.75 1.68 1.60 1.77 1.65 1.46 1.33 1.24 1.13 0.99
1.29 1.35 1.26 1.16 1.10 0.97 0.87 0.83 0.87 1.02 1.15 1.09 1.08 1.06 1.03 1.05 1.11 1.22 1.43 1.58 1.72 1.75 1.81 1.95 2.10 2.30 2.39 2.31 2.12 1.75 1.52 1.48 1.53 1.50 1.43 1.42 1.33 1.14
1.44 1.36 1.14 0.99 0.95 0.91 0.88 0.85 0.81 0.85 0.92 1.01 1.06 1.07 1.07 1.09 1.11 1.11 1.27 1.51 1.65 1.67 1.73 1.85 2.03 2.24 2.42 2.53 2.34 1.92 1.60 1.46 1.52 1.57 1.51 1.56 1.59 1.39
1.30 1.09 0.92 0.86 0.83 0.83 0.82 0.81 0.77 0.72 0.79 0.89 0.94 0.99 1.05 1.08 1.11 1.13 1.17 1.32 1.49 1.62 1.71 1.79 1.93 2.15 2.31 2.44 2.49 2.15 1.84 1.58 1.56 1.74 1.75 1.65 1.63 1.51
1.07 0.97 0.89 0.82 0.80 0.83 0.85 0.84 0.80 0.76 0.79 0.83 0.86 0.89 0.97 1.07 1.10 1.09 1.11 1.23 1.38 1.50 1.59 1.68 1.87 2.10 2.30 2.26 2.32 2.30 2.19 1.88 1.68 1.80 1.88 1.79 1.70 1.67
0.95 0.93 0.90 0.88 0.86 0.87 0.89 0.89 0.88 0.85 0.82 0.83 0.84 0.84 0.86 0.96 1.00 0.97 1.00 1.12 1.28 1.40 1.48 1.48 1.61 1.86 2.09 2.14 2.08 2.03 2.18 2.21 1.90 1.85 1.93 1.99 1.96 1.91
0.88 0.92 0.92 0.92 0.92 0.93 0.94 0.94 0.93 0.87 0.83 0.84 0.81 0.81 0.82 0.87 0.91 0.93 0.99 1.05 1.10 1.21 1.34 1.39 1.49 1.74 2.04 2.24 2.15 1.99 2.04 2.18 2.21 2.05 1.98 2.04 2.23 2.30
0.99 0.98 0.96 0.96 0.96 0.98 0.98 0.96 0.92 0.85 0.80 0.80 0.80 0.79 0.81 0.85 0.85 0.89 0.93 0.99 1.05 1.10 1.20 1.35 1.48 1.64 1.88 2.08 2.18 2.08 1.96 1.98 2.07 2.12 2.26 2.09 1.76 1.60